Weather in Angra dos Reis

Brazil     23°00′05″S   44°18′52″W
temp.,
°C
wind,
m/s
gust,
m/s
humid.,
%
clouds,
%
prec.,
mm/h
press.,
hPa
HPBL,
m
12 april, mon
mon1200:00+22nne22710 0.0 101365
03:00+21n33684 0.0 101177
06:00+21n34615 0.0 101267
09:00+28n11460 0.0 1013188
12:00+30ssw23350 0.0 10121033
15:00+26ssw45610 0.0 1013664
18:00+23ssw358830 0.4 1015401
21:00+23sw358899 2.2 1017450
13 april, tue
tue1300:00+22sw359198 3.4 1017427
03:00+22ssw4593100 7.3 1016479
06:00+21sw3593100 3.7 1018365
09:00+21w248979 6.1 1020269
12:00+23sw238112 1.5 1019494
15:00+23ssw348087 3.1 1018796
18:00+21sw2386100 1.3 1019363
21:00+20sw1288100 2.8 1020292
14 april, wed
wed1400:00+20nnw119193 1.2 101974
03:00+20nnw1187100 2.1 101879
06:00+20nnw118774 0.6 101893
09:00+21wnw118425 1.1 1020192
12:00+23s216740 0.4 1019878
15:00+23se126981 0.6 1018670
18:00+22e1270100 0.1 1019557
21:00+21nne117499 0.1 1020135
15 april, thu
thu1500:00+20n2279100 0.1 1020139
03:00+19n228382 0.1 101899
06:00+18nne2280100 0.0 101986
09:00+22ese1160100 0.0 1020453
12:00+25sse2253100 0.0 1018925
15:00+24sse236299 0.0 1016745
18:00+21ene23796 0.0 1018234
21:00+20nne228518 0.0 1019140
16 april, fri
fri1600:00+19nne22830 0.0 101891
03:00+19nne22820 0.0 101790
06:00+19nne22810 0.0 101890
09:00+23ene12600 0.0 1018607
12:00+26s22515 0.0 1016946
15:00+25sse22585 0.0 1015811
18:00
21:00+20n228014 0.0 101673